FW7128 Weather Reports


time (UTC)temp
F
wind
direction
speed
knots
gust
knots
rain 1hr
in
rain 24hr
in
rain mn
in
humidity
%
barometer
mb
20210723161450 86 194 7.8 14.8 0.00 0.00 0.00 65 1018.8
20210723160950 86 197 7.8 23.5 0.00 0.00 0.00 66 1019.0
20210723160447 87 163 4.3 7.8 0.00 0.00 0.00 65 1019.0
20210723155947 86 253 2.6 13.0 0.00 0.00 0.00 66 1019.1
20210723155444 86 160 4.3 11.3 0.00 0.00 0.00 66 1019.0
20210723154943 86 117 9.6 15.6 0.00 0.00 0.00 66 1019.1
20210723154441 85 163 4.3 7.8 0.00 0.00 0.00 67 1019.1
20210723153937 84 146 12.2 17.4 0.00 0.00 0.00 68 1019.1
20210723153435 84 198 7.8 10.4 0.00 0.00 0.00 68 1019.1
20210723152934 84 181 13.0 13.0 0.00 0.00 0.00 68 1019.2
20210723152433 84 194 7.8 16.5 0.00 0.00 0.00 68 1019.1
20210723151932 84 176 0.0 7.0 0.00 0.00 0.00 70 1019.1
20210723151429 83 297 3.5 13.0 0.00 0.00 0.00 70 1019.2
20210723150927 83 162 4.3 17.4 0.00 0.00 0.00 71 1019.5
20210723150427 83 173 1.7 7.8 0.00 0.00 0.00 70 1019.2
20210723145927 82 168 0.0 7.8 0.00 0.00 0.00 71 1019.2
20210723145425 81 187 4.3 14.8 0.00 0.00 0.00 72 1019.2
20210723144924 81 147 7.8 10.4 0.00 0.00 0.00 72 1019.4
20210723144423 81 165 5.2 12.2 0.00 0.00 0.00 73 1019.1
20210723143922 81 182 7.0 14.8 0.00 0.00 0.00 73 1019.2
20210723143420 81 154 6.1 13.9 0.00 0.00 0.00 74 1019.1
20210723142917 80 56 4.3 14.8 0.00 0.00 0.00 74 1019.2
20210723142417 80 180 7.0 13.9 0.00 0.00 0.00 74 1019.2
20210723141915 80 194 1.7 7.8 0.00 0.00 0.00 74 1019.3
20210723141414 80 123 0.0 10.4 0.00 0.00 0.00 75 1019.2
20210723140912 78 141 6.1 14.8 0.00 0.00 0.00 76 1019.4
20210723140409 79 194 1.7 7.0 0.00 0.00 0.00 76 1019.1
20210723135908 78 216 19.1 19.1 0.00 0.00 0.00 76 1019.1
20210723135407 78 220 8.7 11.3 0.00 0.00 0.00 77 1019.1
20210723134905 78 162 4.3 10.4 0.00 0.00 0.00 77 1019.1
20210723134404 78 167 4.3 11.3 0.00 0.00 0.00 77 1019.3
20210723133903 78 168 4.3 13.9 0.00 0.00 0.00 77 1019.2
20210723133401 77 129 4.3 9.6 0.00 0.00 0.00 78 1019.1
20210723132901 77 82 1.7 17.4 0.00 0.00 0.00 78 1019.2
20210723132359 77 147 7.8 8.7 0.00 0.00 0.00 78 1019.3
20210723131858 77 49 2.6 11.3 0.00 0.00 0.00 79 1019.1
20210723131356 76 170 6.1 13.0 0.00 0.00 0.00 80 1019.1
20210723130855 76 154 3.5 8.7 0.00 0.00 0.00 80 1019.1
20210723130354 76 107 2.6 9.6 0.00 0.00 0.00 81 1018.8
20210723125853 75 117 0.0 7.8 0.00 0.00 0.00 81 1018.8
20210723125350 75 82 1.7 12.2 0.00 0.00 0.00 81 1018.5
20210723124849 75 100 7.8 9.6 0.00 0.00 0.00 81 1018.4
20210723124345 75 171 6.1 7.8 0.00 0.00 0.00 81 1018.4
20210723123845 75 153 5.2 8.7 0.00 0.00 0.00 81 1018.8
20210723123344 75 130 4.3 9.6 0.00 0.00 0.00 82 1018.3
20210723122843 74 83 4.3 7.0 0.00 0.00 0.00 83 1018.6
20210723122337 74 162 3.5 9.6 0.00 0.00 0.00 83 1018.3
20210723121836 74 81 0.0 7.8 0.00 0.00 0.00 83 1018.4
20210723121334 74 102 0.0 7.8 0.00 0.00 0.00 83 1018.4
20210723120833 74 90 0.0 5.2 0.00 0.00 0.00 84 1018.2
20210723120332 74 80 3.5 11.3 0.00 0.00 0.00 83 1018.2
20210723115829 74 85 3.5 9.6 0.00 0.00 0.00 83 1018.3
20210723115327 74 90 8.7 8.7 0.00 0.00 0.00 83 1018.4
20210723114826 74 112 4.3 11.3 0.00 0.00 0.00 84 1018.3
20210723114326 74 101 4.3 7.0 0.00 0.00 0.00 84 1018.1
20210723113825 74 111 5.2 7.0 0.00 0.00 0.00 84 1018.4
20210723113320 74 114 2.6 7.8 0.00 0.00 0.00 84 1018.1
20210723112819 74 94 5.2 7.8 0.00 0.00 0.00 84 1018.1
20210723112319 74 114 0.0 7.0 0.00 0.00 0.00 83 1018.1
20210723111816 74 117 3.5 4.3 0.00 0.00 0.00 83 1018.3
20210723111316 75 102 0.0 10.4 0.00 0.00 0.00 83 1018.0
20210723110815 75 172 5.2 6.1 0.00 0.00 0.00 83 1018.1
20210723110314 75 126 2.6 7.0 0.00 0.00 0.00 83 1017.9
20210723105814 75 11 0.0 5.2 0.00 0.00 0.00 82 1018.1
20210723105312 75 160 2.6 7.0 0.00 0.00 0.00 83 1017.6
20210723104809 75 20 0.0 8.7 0.00 0.00 0.00 83 1017.6
20210723104307 75 95 3.5 10.4 0.00 0.00 0.00 82 1017.8
20210723103807 75 77 7.8 9.6 0.00 0.00 0.00 82 1018.0
20210723103306 75 130 4.3 9.6 0.00 0.00 0.00 82 1017.8
20210723102805 75 103 0.0 5.2 0.00 0.00 0.00 82 1017.8
20210723102306 75 90 0.0 7.0 0.00 0.00 0.00 83 1017.9
20210723101803 75 105 7.8 8.7 0.00 0.00 0.00 83 1017.8
20210723101302 75 95 7.0 11.3 0.00 0.00 0.00 83 1017.6
20210723100800 75 90 3.5 9.6 0.00 0.00 0.00 83 1017.6
20210723100259 75 90 7.8 11.3 0.00 0.00 0.00 82 1017.8
20210723095759 75 105 4.3 10.4 0.00 0.00 0.00 82 1017.8
20210723095257 75 139 3.5 9.6 0.00 0.00 0.00 82 1017.8
20210723094756 76 90 4.3 10.4 0.00 0.00 0.00 82 1018.0
20210723094256 75 127 0.0 10.4 0.00 0.00 0.00 82 1017.6
20210723093754 76 98 1.7 7.8 0.00 0.00 0.00 82 1017.9
20210723093252 76 114 0.0 12.2 0.00 0.00 0.00 82 1017.6
20210723092750 76 114 5.2 8.7 0.00 0.00 0.00 82 1017.6
20210723092250 76 116 0.0 8.7 0.00 0.00 0.00 81 1017.6
20210723091747 76 95 3.5 12.2 0.00 0.00 0.00 81 1017.8
20210723091246 76 135 3.5 5.2 0.00 0.00 0.00 81 1017.6
20210723090745 76 120 0.0 7.8 0.00 0.00 0.00 80 1017.9
20210723090242 76 105 0.0 6.1 0.00 0.00 0.00 80 1017.6
20210723085742 76 108 5.2 5.2 0.00 0.00 0.00 80 1017.6
20210723085241 76 117 0.0 10.4 0.00 0.00 0.00 79 1017.8
20210723084741 77 74 0.0 5.2 0.00 0.00 0.00 79 1017.6
20210723084239 77 126 2.6 7.0 0.00 0.00 0.00 79 1017.5
20210723083737 77 112 0.0 6.1 0.00 0.00 0.00 79 1017.8
20210723083236 77 86 4.3 8.7 0.00 0.00 0.00 78 1017.9
20210723082735 77 82 4.3 6.1 0.00 0.00 0.00 78 1017.8
20210723082232 77 120 2.6 7.8 0.00 0.00 0.00 78 1017.8
20210723081730 78 79 4.3 8.7 0.00 0.00 0.00 77 1018.0
20210723081227 78 103 3.5 7.8 0.00 0.00 0.00 77 1017.8
20210723080727 78 97 4.3 11.3 0.00 0.00 0.00 76 1017.6
20210723080226 78 84 6.1 7.8 0.00 0.00 0.00 76 1017.9
20210723075726 78 124 5.2 7.8 0.00 0.00 0.00 76 1017.9
20210723075224 78 113 6.1 7.0 0.00 0.00 0.00 76 1017.9
20210723074724 78 101 2.6 4.3 0.00 0.00 0.00 76 1018.1
20210723074221 78 100 3.5 8.7 0.00 0.00 0.00 75 1017.9
20210723073719 78 86 4.3 4.3 0.00 0.00 0.00 75 1017.9
20210723073217 79 90 4.3 7.8 0.00 0.00 0.00 74 1018.0
20210723072716 78 126 0.0 6.1 0.00 0.00 0.00 75 1018.1
20210723072213 78 90 4.3 7.0 0.00 0.00 0.00 76 1018.0
20210723071712 78 66 1.7 6.1 0.00 0.00 0.00 76 1018.0
20210723071209 78 97 0.0 7.0 0.00 0.00 0.00 76 1017.8
20210723070708 78 115 3.5 7.8 0.00 0.00 0.00 76 1017.8
20210723070207 78 105 0.0 7.8 0.00 0.00 0.00 76 1017.8
20210723065707 78 81 0.0 6.1 0.00 0.00 0.00 76 1017.9
20210723065205 78 106 3.5 7.0 0.00 0.00 0.00 76 1017.9
20210723064703 78 82 1.7 5.2 0.00 0.00 0.00 75 1017.8
20210723064201 79 95 0.0 8.7 0.00 0.00 0.00 75 1018.0
20210723063701 79 90 5.2 11.3 0.00 0.00 0.00 75 1017.9
20210723063159 79 90 2.6 8.7 0.00 0.00 0.00 75 1017.9
20210723062658 79 86 5.2 11.3 0.00 0.00 0.00 75 1018.0
20210723062157 79 87 11.3 13.9 0.00 0.00 0.00 74 1017.8
20210723061657 79 95 6.1 8.7 0.00 0.00 0.00 74 1018.1
20210723061154 79 96 2.6 7.8 0.00 0.00 0.00 74 1018.1
20210723060653 79 86 4.3 10.4 0.00 0.00 0.00 74 1018.0
20210723060142 79 123 6.1 6.1 0.00 0.00 0.00 74 1018.2
20210723055642 79 98 4.3 10.4 0.00 0.00 0.00 73 1018.0
20210723055142 80 90 5.2 8.7 0.00 0.00 0.00 73 1018.2
20210723054640 80 74 5.2 9.6 0.00 0.00 0.00 73 1018.2
20210723054138 80 90 3.5 7.8 0.00 0.00 0.00 73 1018.2
20210723053634 80 79 6.1 7.8 0.00 0.00 0.00 72 1018.1
20210723053129 80 93 5.2 9.6 0.00 0.00 0.00 72 1018.0
20210723052629 80 94 0.0 7.8 0.00 0.00 0.00 72 1018.1
20210723052046 80 187 6.1 11.3 0.00 0.00 0.00 71 1017.6
20210723051544 81 81 6.1 12.2 0.00 0.00 0.00 71 1018.1
20210723051043 81 94 7.8 13.0 0.00 0.00 0.00 71 1017.6
20210723050542 81 100 6.1 8.7 0.00 0.00 0.00 70 1018.2
20210723050037 81 109 8.7 11.3 0.00 0.00 0.00 70 1018.1
20210723045533 81 81 5.2 7.0 0.00 0.00 0.00 70 1018.0
20210723045031 81 90 4.3 10.4 0.00 0.00 0.00 69 1018.3
20210723044531 81 109 7.8 7.8 0.00 0.00 0.00 69 1018.1
20210723044025 82 53 0.0 8.7 0.00 0.00 0.00 68 1018.2
20210723043523 82 98 11.3 11.3 0.00 0.00 0.00 68 1018.2
20210723043023 82 71 5.2 11.3 0.00 0.00 0.00 67 1018.1
20210723042510 82 90 7.0 7.8 0.00 0.00 0.00 66 1018.1
20210723042010 83 94 4.3 10.4 0.00 0.00 0.00 66 1018.2
20210723041509 83 82 7.0 12.2 0.00 0.00 0.00 65 1018.1
20210723041008 83 95 7.0 13.9 0.00 0.00 0.00 65 1018.1
20210723040506 83 82 7.8 13.0 0.00 0.00 0.00 64 1017.9
20210723040001 83 84 7.8 8.7 0.00 0.00 0.00 64 1018.1
20210723035458 83 97 9.6 10.4 0.00 0.00 0.00 64 1018.2
20210723034957 83 79 8.7 16.5 0.00 0.00 0.00 64 1018.0
20210723034429 84 105 4.3 17.4 0.00 0.00 0.00 64 1017.8
20210723033928 84 114 4.3 7.8 0.00 0.00 0.00 63 1017.9
20210723033426 84 90 8.7 14.8 0.00 0.00 0.00 63 1017.6
20210723032925 84 56 3.5 11.3 0.00 0.00 0.00 63 1017.9
20210723032424 84 103 4.3 11.3 0.00 0.00 0.00 62 1018.0
20210723031922 84 28 5.2 14.8 0.00 0.00 0.00 62 1017.6
20210723031422 84 83 4.3 12.2 0.00 0.00 0.00 61 1017.6
20210723030919 84 99 7.8 7.8 0.00 0.00 0.00 61 1017.6
20210723030417 84 93 6.1 8.7 0.00 0.00 0.00 62 1017.5
20210723025917 85 74 5.2 10.4 0.00 0.00 0.00 61 1017.5
20210723025416 85 55 4.3 9.6 0.00 0.00 0.00 61 1017.4
20210723024914 85 90 6.1 8.7 0.00 0.00 0.00 60 1017.4
20210723024412 85 97 5.2 13.0 0.00 0.00 0.00 59 1017.4
20210723023906 85 78 4.3 8.7 0.00 0.00 0.00 59 1017.3
20210723023406 85 56 0.0 7.8 0.00 0.00 0.00 59 1017.3
20210723022905 86 94 5.2 11.3 0.00 0.00 0.00 59 1017.4
20210723022404 86 69 6.1 9.6 0.00 0.00 0.00 59 1017.3
20210723021903 86 85 6.1 8.7 0.00 0.00 0.00 59 1017.2
20210723021401 86 81 1.7 7.8 0.00 0.00 0.00 59 1017.3
20210723020900 86 78 0.0 7.8 0.00 0.00 0.00 58 1017.1
20210723020359 86 101 3.5 11.3 0.00 0.00 0.00 57 1017.1
20210723015859 87 85 3.5 11.3 0.00 0.00 0.00 56 1017.3
20210723015356 87 66 7.0 9.6 0.00 0.00 0.00 55 1017.0
20210723014856 87 98 7.0 10.4 0.00 0.00 0.00 54 1017.2
20210723014355 87 82 8.7 11.3 0.00 0.00 0.00 54 1017.2
20210723013852 87 80 7.0 7.8 0.00 0.00 0.00 54 1017.1
20210723013352 88 71 5.2 10.4 0.00 0.00 0.00 53 1016.9
20210723012851 88 81 6.1 11.3 0.00 0.00 0.00 53 1017.1
20210723012349 88 78 7.0 13.0 0.00 0.00 0.00 52 1016.9
20210723011848 88 90 2.6 14.8 0.00 0.00 0.00 52 1017.1
20210723011347 88 54 2.6 12.2 0.00 0.00 0.00 51 1017.0
20210723010845 89 90 5.2 16.5 0.00 0.00 0.00 51 1017.0
20210723010342 89 63 9.6 14.8 0.00 0.00 0.00 51 1017.1
20210723005839 89 72 11.3 19.1 0.00 0.00 0.00 50 1017.0
20210723005337 89 57 7.0 12.2 0.00 0.00 0.00 50 1016.8
20210723004835 89 114 2.6 10.4 0.00 0.00 0.00 50 1016.7
20210723004335 89 124 3.5 14.8 0.00 0.00 0.00 49 1016.9
20210723003835 89 90 2.6 12.2 0.00 0.00 0.00 48 1016.6
20210723003332 90 94 0.0 15.6 0.00 0.00 0.00 47 1016.6
20210723002833 90 75 7.8 16.5 0.00 0.00 0.00 47 1016.6
20210723002332 90 103 5.2 9.6 0.00 0.00 0.00 46 1016.5
20210723001831 91 35 7.0 8.7 0.00 0.00 0.00 46 1016.6
20210723001328 91 116 4.3 9.6 0.00 0.00 0.00 46 1016.4
20210723000827 90 74 7.8 12.2 0.00 0.00 0.00 45 1016.6
20210723000326 91 85 16.5 18.2 0.00 0.00 0.00 45 1016.6
20210722235824 91 92 8.7 16.5 0.00 0.00 0.00 45 1016.6
20210722235323 91 127 6.1 13.9 0.00 0.00 0.00 44 1016.6
20210722234822 91 60 4.3 13.0 0.00 0.00 0.00 44 1016.6
20210722234321 91 24 4.3 10.4 0.00 0.00 0.00 44 1016.7
20210722233820 91 90 0.0 14.8 0.00 0.00 0.00 44 1016.8
20210722233318 92 70 12.2 12.2 0.00 0.00 0.00 43 1016.9
20210722232815 91 148 2.6 11.3 0.00 0.00 0.00 44 1016.9
20210722232315 91 115 11.3 16.5 0.00 0.00 0.00 44 1016.9
20210722231813 91 100 7.0 12.2 0.00 0.00 0.00 43 1016.7
20210722231311 92 144 4.3 13.9 0.00 0.00 0.00 43 1016.9
20210722230809 92 61 4.3 10.4 0.00 0.00 0.00 43 1016.8
20210722230308 93 101 4.3 10.4 0.00 0.00 0.00 43 1016.8
20210722225807 93 90 4.3 6.1 0.00 0.00 0.00 42 1016.9
20210722225306 92 87 5.2 9.6 0.00 0.00 0.00 43 1017.0
20210722224804 93 120 4.3 12.2 0.00 0.00 0.00 42 1017.1
20210722224301 92 80 3.5 5.2 0.00 0.00 0.00 42 1017.0
20210722223800 93 102 8.7 11.3 0.00 0.00 0.00 42 1016.9
20210722223259 93 83 4.3 6.1 0.00 0.00 0.00 42 1017.3
20210722222758 92 109 9.6 13.9 0.00 0.00 0.00 42 1017.2
20210722222256 92 69 5.2 6.1 0.00 0.00 0.00 43 1017.4
20210722221755 92 74 5.2 11.3 0.00 0.00 0.00 42 1017.2
20210722221253 92 94 4.3 12.2 0.00 0.00 0.00 41 1017.3
20210722220753 92 152 3.5 12.2 0.00 0.00 0.00 41 1017.3
20210722220251 92 70 7.0 8.7 0.00 0.00 0.00 42 1017.4
20210722215751 92 143 3.5 6.1 0.00 0.00 0.00 42 1017.6
20210722215248 92 83 5.2 15.6 0.00 0.00 0.00 43 1017.8
20210722214747 93 165 6.1 11.3 0.00 0.00 0.00 40 1017.8
20210722214246 93 339 0.0 8.7 0.00 0.00 0.00 43 1017.6
20210722213746 92 137 9.6 11.3 0.00 0.00 0.00 42 1017.8
20210722213244 91 62 8.7 10.4 0.00 0.00 0.00 41 1017.9
20210722212743 91 93 0.0 12.2 0.00 0.00 0.00 42 1018.0
20210722212242 92 94 4.3 8.7 0.00 0.00 0.00 42 1018.1
20210722211741 92 118 6.1 7.0 0.00 0.00 0.00 43 1017.8
20210722211239 92 150 6.1 10.4 0.00 0.00 0.00 42 1018.1
20210722210738 91 90 2.6 17.4 0.00 0.00 0.00 43 1018.0
20210722210237 92 78 4.3 7.8 0.00 0.00 0.00 41 1018.3
20210722205737 91 164 9.6 10.4 0.00 0.00 0.00 42 1018.3
20210722205235 91 205 7.0 10.4 0.00 0.00 0.00 44 1018.4
20210722204734 91 81 3.5 11.3 0.00 0.00 0.00 44 1018.4
20210722204232 91 81 8.7 19.1 0.00 0.00 0.00 45 1018.7
20210722203731 91 106 0.0 8.7 0.00 0.00 0.00 46 1018.5
20210722203227 92 55 10.4 12.2 0.00 0.00 0.00 44 1018.6
20210722202727 92 196 8.7 8.7 0.00 0.00 0.00 44 1018.9
20210722202227 90 90 2.6 11.3 0.00 0.00 0.00 46 1018.7
20210722201726 92 90 0.0 12.2 0.00 0.00 0.00 44 1018.9
20210722201221 91 155 7.8 8.7 0.00 0.00 0.00 47 1019.0
20210722200719 89 79 3.5 14.8 0.00 0.00 0.00 44 1018.8
20210722200217 91 71 8.7 13.9 0.00 0.00 0.00 46 1018.9
20210722195717 91 174 0.0 5.2 0.00 0.00 0.00 48 1018.9
20210722195215 90 62 11.3 11.3 0.00 0.00 0.00 46 1018.9
20210722194713 90 66 10.4 17.4 0.00 0.00 0.00 47 1019.0
20210722194209 89 83 0.0 9.6 0.00 0.00 0.00 49 1019.0
20210722193709 91 154 0.0 5.2 0.00 0.00 0.00 48 1019.0
20210722193208 90 189 0.0 11.3 0.00 0.00 0.00 48 1019.3
20210722192707 90 33 11.3 17.4 0.00 0.00 0.00 47 1019.2
20210722192207 89 105 7.0 18.2 0.00 0.00 0.00 46 1019.4
20210722191705 91 165 3.5 8.7 0.00 0.00 0.00 49 1019.2
20210722191204 90 68 13.0 13.0 0.00 0.00 0.00 47 1019.3
20210722190702 90 86 4.3 8.7 0.00 0.00 0.00 50 1019.3
20210722190200 89 73 13.0 17.4 0.00 0.00 0.00 50 1019.3
20210722185700 89 115 7.8 11.3 0.00 0.00 0.00 49 1019.4
20210722185158 89 69 7.8 17.4 0.00 0.00 0.00 50 1019.3
20210722184657 89 71 6.1 6.1 0.00 0.00 0.00 51 1019.4
20210722184156 89 77 3.5 9.6 0.00 0.00 0.00 49 1019.7
20210722183655 88 74 10.4 14.8 0.00 0.00 0.00 48 1019.5
20210722183152 88 111 2.6 17.4 0.00 0.00 0.00 50 1019.4
20210722182652 88 113 10.4 11.3 0.00 0.00 0.00 51 1019.6
20210722182146 89 59 7.0 8.7 0.00 0.00 0.00 51 1019.9
20210722181644 87 77 4.3 7.8 0.00 0.00 0.00 53 1019.7
20210722181142 87 55 0.0 7.8 0.00 0.00 0.00 52 1019.9
20210722180640 88 40 5.2 6.1 0.00 0.00 0.00 52 1020.0
20210722180140 87 161 7.0 7.0 0.00 0.00 0.00 54 1019.7
20210722175638 88 234 2.6 14.8 0.00 0.00 0.00 54 1020.0
20210722175136 88 152 4.3 10.4 0.00 0.00 0.00 54 1020.1
20210722174634 87 105 0.0 11.3 0.00 0.00 0.00 54 1020.2
20210722174132 87 145 2.6 7.0 0.00 0.00 0.00 54 1020.1
20210722173630 88 157 0.0 7.8 0.00 0.00 0.00 54 1020.2
20210722173129 88 127 3.5 18.2 0.00 0.00 0.00 54 1020.2
20210722172628 88 135 4.3 11.3 0.00 0.00 0.00 52 1020.1
20210722172128 87 73 7.8 12.2 0.00 0.00 0.00 53 1020.1
20210722171627 87 129 4.3 11.3 0.00 0.00 0.00 53 1020.3
20210722171123 87 119 7.8 7.8 0.00 0.00 0.00 56 1020.5
20210722170623 87 114 4.3 7.8 0.00 0.00 0.00 55 1020.4
20210722170122 87 107 7.8 13.9 0.00 0.00 0.00 53 1020.3
20210722165620 87 164 2.6 9.6 0.00 0.00 0.00 52 1020.4
20210722165117 88 180 3.5 5.2 0.00 0.00 0.00 56 1020.4
20210722164617 87 23 0.0 4.3 0.00 0.00 0.00 56 1020.4
20210722164115 86 204 9.6 10.4 0.00 0.00 0.00 58 1020.3
20210722163613 86 90 2.6 10.4 0.00 0.00 0.00 59 1020.5
20210722163113 86 146 0.0 8.7 0.00 0.00 0.00 58 1020.5
20210722162611 85 45 3.5 10.4 0.00 0.00 0.00 57 1020.5
20210722162109 86 208 7.8 8.7 0.00 0.00 0.00 59 1020.5